• In United Kingdom
  • List of Countries
  • For 7 days
  • Water Temperature
  • Satellite Maps
  • Weather Map
  • Weather Widgets
  • user-avatar
    Login

    Hourly Weather Rajmundow

    Today, 23 October, Tuesday

    Time Temperature Precipitation Wind Pressure Humidity
    00:00 +5°C° 0 mm 4 mps 755 mmHg 87%
    01:00 +4°C° 0 mm 4 mps 755 mmHg 89%
    02:00 +4°C° 0 mm 4 mps 755 mmHg 88%
    03:00 +4°C° 0 mm 4 mps 754 mmHg 87%
    04:00 +2°C° 0 mm 5 mps 753 mmHg 86%
    05:00 +3°C° 0 mm 6 mps 752 mmHg 83%
    06:00 +3°C° 0 mm 6 mps 751 mmHg 80%
    07:00 +3°C° 0 mm 7 mps 750 mmHg 78%
    08:00 +4°C° 0.5 mm 8 mps 749 mmHg 76%
    09:00 +3°C° 0.5 mm 9 mps 747 mmHg 73%
    10:00 +5°C° 0.5 mm 10 mps 746 mmHg 71%
    11:00 +4°C° 1.4 mm 11 mps 745 mmHg 73%
    12:00 +4°C° 1.4 mm 11 mps 743 mmHg 75%
    13:00 +4°C° 1.4 mm 12 mps 742 mmHg 78%
    14:00 +5°C° 0.6 mm 12 mps 741 mmHg 79%
    15:00 +6°C° 0.6 mm 11 mps 740 mmHg 80%
    16:00 +7°C° 0.6 mm 11 mps 738 mmHg 80%
    17:00 +7°C° 1.2 mm 10 mps 738 mmHg 82%
    18:00 +7°C° 1.2 mm 9 mps 737 mmHg 83%
    19:00 +9°C° 1.2 mm 8 mps 736 mmHg 84%
    20:00 +9°C° 0.4 mm 8 mps 736 mmHg 81%
    21:00 +7°C° 0.4 mm 8 mps 736 mmHg 78%
    22:00 +7°C° 0.4 mm 8 mps 736 mmHg 75%
    23:00 +6°C° 0.1 mm 9 mps 735 mmHg 74%

    Tomorrow, 24 October, Wednesday

    Time Temperature Precipitation Wind Pressure Humidity
    00:00 +6°C° 0.1 mm 9 mps 735 mmHg 73%
    01:00 +6°C° 0.1 mm 9 mps 735 mmHg 72%
    02:00 +5°C° 0.1 mm 9 mps 735 mmHg 70%
    03:00 +5°C° 0.1 mm 9 mps 735 mmHg 69%
    04:00 +5°C° 0.1 mm 9 mps 736 mmHg 67%
    05:00 +3°C° 0.3 mm 9 mps 736 mmHg 66%
    06:00 +3°C° 0.3 mm 9 mps 737 mmHg 65%
    07:00 +3°C° 0.3 mm 9 mps 738 mmHg 63%
    08:00 +3°C° 0 mm 9 mps 738 mmHg 58%
    09:00 +5°C° 0 mm 10 mps 739 mmHg 53%
    10:00 +4°C° 0 mm 11 mps 740 mmHg 47%
    11:00 +4°C° 0 mm 11 mps 740 mmHg 47%
    12:00 +4°C° 0 mm 11 mps 741 mmHg 47%
    13:00 +6°C° 0 mm 11 mps 741 mmHg 47%
    14:00 +5°C° 0 mm 10 mps 742 mmHg 49%
    15:00 +5°C° 0 mm 9 mps 742 mmHg 50%
    16:00 +5°C° 0 mm 9 mps 743 mmHg 52%
    17:00 +4°C° 0 mm 8 mps 744 mmHg 54%
    18:00 +4°C° 0 mm 8 mps 744 mmHg 57%
    19:00 +3°C° 0 mm 7 mps 745 mmHg 59%
    20:00 +3°C° 0 mm 7 mps 745 mmHg 61%
    21:00 +3°C° 0 mm 7 mps 746 mmHg 62%
    22:00 +3°C° 0 mm 6 mps 746 mmHg 63%
    23:00 +3°C° 0 mm 6 mps 746 mmHg 65%

    Day after tomorrow, 25 October, Thursday

    Time Temperature Precipitation Wind Pressure Humidity
    00:00 +2°C° 0 mm 6 mps 746 mmHg 67%
    01:00 +2°C° 0 mm 5 mps 746 mmHg 69%
    02:00 +2°C° 0 mm 5 mps 746 mmHg 71%
    03:00 +2°C° 0 mm 5 mps 746 mmHg 72%
    04:00 +2°C° 0 mm 5 mps 745 mmHg 74%
    05:00 +2°C° 0.3 mm 5 mps 744 mmHg 77%
    06:00 +2°C° 0.3 mm 5 mps 744 mmHg 80%
    07:00 +2°C° 0.3 mm 5 mps 743 mmHg 83%
    08:00 +4°C° 0.7 mm 6 mps 742 mmHg 86%
    09:00 +5°C° 0.7 mm 6 mps 741 mmHg 88%
    10:00 +6°C° 0.7 mm 7 mps 741 mmHg 90%
    11:00 +7°C° 0.5 mm 8 mps 740 mmHg 87%
    12:00 +8°C° 0.5 mm 9 mps 740 mmHg 83%
    13:00 +9°C° 0.5 mm 10 mps 739 mmHg 80%
    14:00 +10°C° 0.2 mm 9 mps 739 mmHg 77%
    15:00 +8°C° 0.2 mm 9 mps 740 mmHg 75%
    16:00 +8°C° 0.2 mm 9 mps 740 mmHg 72%
    17:00 +7°C° 0 mm 8 mps 740 mmHg 73%
    18:00 +7°C° 0 mm 8 mps 741 mmHg 73%
    19:00 +6°C° 0 mm 7 mps 741 mmHg 73%
    20:00 +6°C° 0 mm 7 mps 742 mmHg 75%
    21:00 +5°C° 0 mm 6 mps 742 mmHg 77%
    22:00 +5°C° 0 mm 6 mps 742 mmHg 79%
    23:00 +5°C° 0 mm 6 mps 743 mmHg 80%

    26 October, Friday

    Time Temperature Precipitation Wind Pressure Humidity
    00:00 +4°C° 0 mm 6 mps 743 mmHg 82%
    01:00 +4°C° 0 mm 6 mps 743 mmHg 83%
    02:00 +4°C° 0 mm 6 mps 743 mmHg 84%
    03:00 +5°C° 0 mm 5 mps 743 mmHg 85%
    04:00 +5°C° 0 mm 5 mps 743 mmHg 86%
    05:00 +5°C° 0 mm 5 mps 743 mmHg 87%
    06:00 +3°C° 0 mm 5 mps 743 mmHg 88%
    07:00 +4°C° 0 mm 4 mps 743 mmHg 89%
    08:00 +5°C° 0 mm 4 mps 743 mmHg 84%
    09:00 +6°C° 0 mm 5 mps 743 mmHg 79%
    10:00 +7°C° 0 mm 5 mps 743 mmHg 74%
    11:00 +8°C° 0 mm 5 mps 743 mmHg 74%
    12:00 +8°C° 0 mm 5 mps 742 mmHg 75%
    13:00 +9°C° 0 mm 5 mps 741 mmHg 75%
    14:00 +9°C° 0 mm 5 mps 741 mmHg 77%
    15:00 +10°C° 0 mm 4 mps 740 mmHg 80%
    16:00 +10°C° 0 mm 4 mps 740 mmHg 82%
    17:00 +9°C° 0.1 mm 5 mps 739 mmHg 80%
    18:00 +9°C° 0.1 mm 6 mps 739 mmHg 78%
    19:00 +9°C° 0.1 mm 6 mps 739 mmHg 76%
    20:00 +8°C° 0 mm 7 mps 739 mmHg 75%
    21:00 +8°C° 0 mm 7 mps 738 mmHg 74%
    22:00 +7°C° 0 mm 8 mps 738 mmHg 73%
    23:00 +6°C° 0 mm 8 mps 738 mmHg 72%

    27 October, Saturday

    Time Temperature Precipitation Wind Pressure Humidity
    00:00 +6°C° 0 mm 8 mps 738 mmHg 71%
    01:00 +6°C° 0 mm 9 mps 738 mmHg 71%
    02:00 +5°C° 0 mm 9 mps 739 mmHg 70%
    03:00 +5°C° 0 mm 9 mps 739 mmHg 70%
    04:00 +5°C° 0 mm 9 mps 739 mmHg 69%
    05:00 +3°C° 0 mm 9 mps 740 mmHg 70%
    06:00 +3°C° 0 mm 9 mps 740 mmHg 70%
    07:00 +3°C° 0 mm 9 mps 740 mmHg 70%
    08:00 +3°C° 0 mm 9 mps 741 mmHg 68%
    09:00 +5°C° 0 mm 9 mps 741 mmHg 66%
    10:00 +5°C° 0 mm 9 mps 742 mmHg 64%
    11:00 +5°C° 0 mm 8 mps 742 mmHg 63%
    12:00 +5°C° 0 mm 7 mps 743 mmHg 62%
    13:00 +6°C° 0 mm 7 mps 743 mmHg 61%
    14:00 +5°C° 0 mm 6 mps 744 mmHg 62%
    15:00 +6°C° 0 mm 5 mps 744 mmHg 63%
    16:00 +6°C° 0 mm 4 mps 744 mmHg 63%
    17:00 +5°C° 0 mm 3 mps 745 mmHg 66%
    18:00 +5°C° 0 mm 3 mps 745 mmHg 69%
    19:00 +5°C° 0 mm 2 mps 746 mmHg 73%
    20:00 +5°C° 0 mm 2 mps 746 mmHg 74%
    21:00 +5°C° 0 mm 2 mps 746 mmHg 76%
    22:00 +5°C° 0 mm 1 mps 747 mmHg 78%
    23:00 +5°C° 0 mm 1 mps 747 mmHg 78%

    28 October, Sunday

    Time Temperature Precipitation Wind Pressure Humidity
    00:00 +5°C° 0 mm 1 mps 747 mmHg 79%
    01:00 +5°C° 0 mm 1 mps 747 mmHg 79%
    02:00 +5°C° 0 mm 1 mps 747 mmHg 79%
    03:00 +5°C° 0 mm 1 mps 748 mmHg 79%
    04:00 +5°C° 0 mm 1 mps 748 mmHg 79%
    05:00 +4°C° 0 mm 2 mps 748 mmHg 79%
    06:00 +4°C° 0 mm 2 mps 748 mmHg 80%
    07:00 +4°C° 0 mm 2 mps 749 mmHg 80%
    08:00 +4°C° 0 mm 2 mps 749 mmHg 77%
    09:00 +4°C° 0 mm 3 mps 749 mmHg 74%
    10:00 +5°C° 0 mm 3 mps 749 mmHg 71%
    11:00 +5°C° 0.2 mm 4 mps 749 mmHg 71%
    12:00 +5°C° 0.2 mm 4 mps 749 mmHg 70%
    13:00 +5°C° 0.2 mm 4 mps 748 mmHg 69%
    14:00 +5°C° 0.6 mm 5 mps 748 mmHg 71%
    15:00 +5°C° 0.6 mm 5 mps 748 mmHg 74%
    16:00 +3°C° 0.6 mm 5 mps 748 mmHg 76%
    17:00 +3°C° 0.5 mm 6 mps 748 mmHg 77%
    18:00 +3°C° 0.5 mm 6 mps 748 mmHg 77%
    19:00 +3°C° 0.5 mm 7 mps 748 mmHg 78%
    20:00 +3°C° 0.1 mm 7 mps 748 mmHg 78%
    21:00 +3°C° 0.1 mm 7 mps 747 mmHg 79%
    22:00 +2°C° 0.1 mm 8 mps 747 mmHg 79%
    23:00 +2°C° 1.2 mm 8 mps 747 mmHg 79%

    29 October, Monday

    Time Temperature Precipitation Wind Pressure Humidity
    00:00 +2°C° 1.2 mm 8 mps 746 mmHg 79%
    01:00 +1°C° 1.2 mm 9 mps 746 mmHg 79%
    02:00 +1°C° 1.5 mm 9 mps 745 mmHg 79%
    03:00 +1°C° 1.5 mm 9 mps 745 mmHg 80%
    04:00 +1°C° 1.5 mm 10 mps 745 mmHg 80%
    05:00 +1°C° 1.4 mm 10 mps 744 mmHg 81%
    06:00 +1°C° 1.4 mm 9 mps 744 mmHg 82%
    07:00 0°C° 1.4 mm 9 mps 744 mmHg 83%
    08:00 0°C° 1.3 mm 9 mps 743 mmHg 84%
    09:00 0°C° 1.3 mm 9 mps 743 mmHg 84%
    10:00 0°C° 1.3 mm 9 mps 743 mmHg 85%
    11:00 0°C° 1.2 mm 9 mps 743 mmHg 86%
    12:00 0°C° 1.2 mm 9 mps 742 mmHg 87%
    13:00 0°C° 1.2 mm 8 mps 742 mmHg 87%
    14:00 +1°C° 1.2 mm 8 mps 741 mmHg 88%
    15:00 +2°C° 1.2 mm 7 mps 741 mmHg 89%
    16:00 +2°C° 1.2 mm 7 mps 741 mmHg 89%
    17:00 +2°C° 0.5 mm 7 mps 741 mmHg 90%
    18:00 +2°C° 0.5 mm 6 mps 741 mmHg 90%
    19:00 +2°C° 0.5 mm 6 mps 741 mmHg 91%
    20:00 +2°C° 0.1 mm 6 mps 741 mmHg 91%
    21:00 +2°C° 0.1 mm 5 mps 741 mmHg 92%
    22:00 +2°C° 0.1 mm 5 mps 741 mmHg 92%
    23:00 +3°C° 0 mm 5 mps 741 mmHg 93%
    Show more